Zurück zum Katalog

STARLINK-35891

AktivKommunikationVLEO
NORAD 67045·PAYLOAD·🇺🇸 United States

Gestartet Dec 11, 2025 von Cape Canaveral Space Force Station

Loading…

Nächste Überflüge (nächste 24 Stunden)

TLE

AktuellSource: CelesTrak SupGP

Epoche: Sep 14, 2026, 21:02 UTC

1 67045C 25294R   26257.87687500  .00050026  00000+0  18122-2 0  2572
2 67045  43.0009  49.9390 0001553 272.4725 299.3833 15.27549225    17

Verfolge STARLINK-35891 in Echtzeit mit AllMySat

Download on the App Store